Content
SEND FEEDBACK

Daily
Averages
Monthly
Summary
United States of America

DERMOTT, ARKANSAS


Home > North America > United States > Arkansas
Elevation: 143 feet     Latitude: 33 33N     Longitude: 091 23W

WEATHER
 
SELECT A DAY
Number of Records: 171,378;   Date Range: 10/22/98 - 12/16/14
 
SHARE

PRINT THIS DATA

[ ← Previous Day ]
WEATHER ALMANAC - FEBRUARY 5, 2013
[ Next Day → ]
[ °C ]   °F
Weather ElementAverageHighLow
Temperature50.6 °F59 °F (3:53 pm)42.1 °F (11:53 pm)
Dewpoint47.8 °F52 °F (4:53 pm)41 °F (11:53 pm)
Humidity90.4 %100 % (9:31 pm)75 % (3:53 pm)
Barometer30.02 in30.07 in (9:31 pm)29.93 in (4:08 am)
Wind Speed1 mph5.8 mph (4:53 pm)
Weather ElementAverage
Visibility5.2 mi
Wind DirectionNE (44.9 °)

Weather ElementTotal
Precipitation---
Heating Degree Days14.5 (Base 65)
Growing Degree Days0.5 (Base 50)
Averaged from 41 records on February 5, 2013
WEATHER CONDITIONS BREAKOUT
WIND DIRECTION BREAKOUT
WEATHER BY HOUR - FEBRUARY 5, 2013
[ °C ]   °F
Local TimeTemperatureDewpointHumidityBarometerVisibilityWind DirectionWind SpeedGust SpeedPrecipitationEventsConditions
1:53 AM50.0 °F48.9 °F96 %29.94 in8.0 miCalmOvercast
2:53 AM50.0 °F48.0 °F93 %29.94 in10.0 miCalmOvercast
3:53 AM50.0 °F48.0 °F93 %29.94 in10.0 miCalmOvercast
4:08 AM50.0 °F48.2 °F94 %29.93 in9.0 miSouth (170°)3.5 mphOvercast
4:53 AM50.0 °F48.0 °F93 %29.94 in10.0 miCalmOvercast
5:29 AM50.0 °F48.2 °F94 %29.95 in10.0 miCalmOvercast
6:53 AM50.0 °F48.0 °F93 %29.98 in10.0 miCalmOvercast
7:37 AM51.8 °F48.2 °F88 %29.99 in8.0 miCalmOvercast
7:53 AM51.1 °F48.0 °F89 %30.00 in7.0 miCalmOvercast
8:24 AM51.8 °F48.2 °F88 %30.01 in2.5 miNE (50°)3.5 mphOvercast
8:36 AM51.8 °F48.2 °F88 %30.02 in1.8 miCalmOvercast
8:53 AM52.0 °F50.0 °F93 %30.02 in3.0 miCalmOvercast
9:06 AM51.8 °F50.0 °F94 %30.02 in2.5 miNE (40°)3.5 mphOvercast
9:30 AM51.8 °F50.0 °F94 %30.03 in3.0 miENE (70°)3.5 mphOvercast
10:53 AM53.1 °F50.0 °F89 %30.05 in5.0 miENE (60°)3.5 mph0.00 inOvercast
11:46 AM53.6 °F50.0 °F88 %30.04 in7.0 miCalm0.00 inOvercast
11:53 AM54.0 °F50.0 °F86 %30.04 in7.0 miCalm0.00 inOvercast
12:53 PM55.0 °F50.0 °F83 %30.03 in9.0 miCalmOvercast
1:00 PM55.4 °F50.0 °F82 %30.03 in9.0 miCalmOvercast
1:43 PM57.2 °F51.8 °F82 %30.01 in10.0 miNW (310°)3.5 mphOvercast
1:53 PM55.9 °F51.1 °F84 %30.01 in10.0 miNNW (340°)3.5 mphOvercast
2:53 PM57.0 °F51.1 °F81 %30.00 in10.0 miWSW (240°)3.5 mphOvercast
3:14 PM57.2 °F51.8 °F82 %30.00 in10.0 miCalmScattered Clouds
3:53 PM59.0 °F51.1 °F75 %30.00 in10.0 miSouth (180°)4.6 mphScattered Clouds
4:53 PM57.9 °F52.0 °F81 %30.00 in10.0 miSSW (200°)5.8 mphClear
5:53 PM55.0 °F50.0 °F83 %30.00 in10.0 miCalmClear
6:53 PM50.0 °F48.0 °F93 %30.02 in4.0 miCalmClear
7:06 PM48.2 °F46.4 °F93 %30.03 in2.5 miCalmClear
7:17 PM50.0 °F48.2 °F94 %30.03 in0.8 miCalmMist
7:26 PM48.2 °F46.4 °F93 %30.03 in0.2 miCalm0.00 inFog-RainLight Rain
7:44 PM48.2 °F46.4 °F93 %30.03 in0.5 miCalm0.00 inFogFog
7:53 PM46.9 °F45.0 °F93 %30.04 in0.5 miCalm0.00 inFogFog
8:15 PM46.4 °F44.6 °F93 %30.04 in0.2 miCalmFogFog
8:30 PM46.4 °F44.6 °F93 %30.05 in0.5 miCalmFogFog
8:42 PM46.4 °F44.6 °F93 %30.05 in0.2 miCalmFogFog
8:53 PM46.0 °F45.0 °F96 %30.06 in0.2 miCalmFogFog
9:31 PM42.8 °F42.8 °F100 %30.07 in0.5 miCalm0.00 inFogFog
9:53 PM44.1 °F42.1 °F93 %30.07 in0.5 miCalm0.00 inFogFog
10:01 PM42.8 °F42.8 °F100 %30.07 in0.2 miCalmFogFog
10:53 PM44.1 °F43.0 °F96 %30.07 in0.2 miCalmFogFog
11:53 PM42.1 °F41.0 °F96 %30.06 in0.8 miSouth (180°)3.5 mphMist
Hourly data recorded from KLLQ, located miles away from Dermott, Arkansas







STORIES FROM OUR PARTNERS